Wendover, UT

9:36 AM MDT on August 28, 2016 (GMT -0600)
Wendover

Weather History for KENV - October, 2012

Change the Weather History Date:

Wednesday, October 31, 2012

  Actual Average Record
Temperature  
Mean Temperature 50 °F -  
Max Temperature 62 °F 53 °F 70 °F (1933)
Min Temperature 37 °F 36 °F 19 °F (1991)
Degree Days  
Heating Degree Days 16    
Moisture  
Dew Point 30 °F    
Average Humidity 46    
Maximum Humidity 65    
Minimum Humidity 27    
Precipitation  
Precipitation 0.00 in - - ()
Sea Level Pressure  
Sea Level Pressure 30.07 in    
Wind  
Wind Speed 3 mph (East)    
Max Wind Speed 7 mph    
Max Gust Speed -    
Visibility 10 miles    
Events      
Averages and records for this station are not official NWS values.
T = Trace of Precipitation, MM = Missing Value Source: NWS Daily Summary

Daily Weather History Graph

Daily Weather History Graph

Search for Another Location

Airport or City:

Trip Planner

Search our weather history database for the weather conditions in past years. The results will help you decide how hot, cold, wet, or windy it might be!

Date:

Astronomy

Oct. 31, 2012 Rise Set
Actual Time 8:05 AM MDT 6:32 PM MDT
Civil Twilight 7:37 AM MDT 7:01 PM MDT
Nautical Twilight 7:05 AM MDT 7:33 PM MDT
Astronomical Twilight 6:33 AM MDT 8:05 PM MDT
Moon 7:46 PM MDT (10/31) 9:51 AM MDT (10/31)
Length of Visible Light 11h 23m
Length of Day
10h 26m
Full, 97% of the Moon is Illuminated
Oct 31
Full
Nov 6
Last Quarter
Nov 13
New
Nov 20
First Quarter
Nov 28
Full

Hourly Weather History & Observations

Time (MDT) Temp. Windchill Dew Point Humidity Pressure Visibility Wind Dir Wind Speed Gust Speed Precip Events Conditions
12:35 AM 44.6 °F 43.1 °F 28.4 °F 53% 30.12 in 10.0 mi WSW 3.5 mph - N/A   Clear
12:55 AM 44.6 °F 43.1 °F 28.4 °F 53% 30.12 in 10.0 mi WNW 3.5 mph - N/A   Clear
1:15 AM 42.8 °F 40.1 °F 28.4 °F 57% 30.13 in 10.0 mi ENE 4.6 mph - N/A   Clear
1:55 AM 42.8 °F 40.1 °F 28.4 °F 57% 30.13 in 10.0 mi ESE 4.6 mph - N/A   Clear
2:15 AM 42.8 °F - 30.2 °F 61% 30.13 in 10.0 mi Calm Calm - N/A   Clear
2:55 AM 42.8 °F - 28.4 °F 57% 30.13 in 10.0 mi Calm Calm - N/A   Clear
3:55 AM 42.8 °F - 28.4 °F 57% 30.13 in 10.0 mi Calm Calm - N/A   Clear
4:15 AM 42.8 °F - 28.4 °F 57% 30.12 in 10.0 mi Calm Calm - N/A   Clear
4:56 AM 39.2 °F 37.0 °F 26.6 °F 61% 30.12 in 10.0 mi NE 3.5 mph - N/A   Clear
5:35 AM 37.4 °F 32.1 °F 26.6 °F 65% 30.12 in 10.0 mi NE 6.9 mph - N/A   Clear
6:15 AM 39.2 °F - 28.4 °F 65% 30.13 in 10.0 mi Calm Calm - N/A   Clear
6:55 AM 39.2 °F - 28.4 °F 65% 30.13 in 10.0 mi Calm Calm - N/A   Clear
7:36 AM 37.4 °F - 26.6 °F 65% 30.13 in 10.0 mi Calm Calm - N/A   Clear
7:55 AM 39.2 °F 37.0 °F 28.4 °F 65% 30.13 in 10.0 mi West 3.5 mph - N/A   Clear
8:35 AM 39.2 °F - 28.4 °F 65% 30.14 in 10.0 mi Calm Calm - N/A   Clear
10:15 AM 48.2 °F - 30.2 °F 50% 30.15 in 10.0 mi Calm Calm - N/A   Clear
10:35 AM 48.2 °F - 32.0 °F 54% 30.15 in 10.0 mi Calm Calm - N/A   Clear
10:55 AM 50.0 °F - 32.0 °F 50% 30.15 in 10.0 mi SE 3.5 mph - N/A   Clear
11:15 AM 51.8 °F - 30.2 °F 44% 30.15 in 10.0 mi SSE 4.6 mph - N/A   Clear
11:35 AM 51.8 °F - 30.2 °F 44% 30.15 in 10.0 mi Calm Calm - N/A   Clear
11:55 AM 51.8 °F - 30.2 °F 44% 30.15 in 10.0 mi Calm Calm - N/A   Clear
12:15 PM 53.6 °F - 30.2 °F 41% 30.14 in 10.0 mi ESE 3.5 mph - N/A   Clear
12:35 PM 55.4 °F - 30.2 °F 38% 30.13 in 10.0 mi ESE 6.9 mph - N/A   Clear
1:15 PM 57.2 °F - 33.8 °F 41% 30.10 in 10.0 mi East 5.8 mph - N/A   Clear
1:35 PM 57.2 °F - 33.8 °F 41% 30.09 in 10.0 mi ESE 4.6 mph - N/A   Clear
1:55 PM 57.2 °F - 30.2 °F 36% 30.08 in 10.0 mi ESE 5.8 mph - N/A   Clear
2:15 PM 57.2 °F - 30.2 °F 36% 30.07 in 10.0 mi East 3.5 mph - N/A   Clear
2:35 PM 59.0 °F - 30.2 °F 34% 30.06 in 10.0 mi Calm Calm - N/A   Clear
2:55 PM 59.0 °F - 30.2 °F 34% 30.05 in 10.0 mi East 4.6 mph - N/A   Clear
3:15 PM 60.8 °F - 30.2 °F 31% 30.04 in 10.0 mi East 4.6 mph - N/A   Clear
3:35 PM 60.8 °F - 28.4 °F 29% 30.03 in 10.0 mi East 5.8 mph - N/A   Clear
3:55 PM 60.8 °F - 28.4 °F 29% 30.02 in 10.0 mi East 6.9 mph - N/A   Clear
4:15 PM 62.6 °F - 28.4 °F 27% 30.02 in 10.0 mi East 4.6 mph - N/A   Clear
4:55 PM 60.8 °F - 28.4 °F 29% 30.01 in 10.0 mi East 4.6 mph - N/A   Clear
5:15 PM 60.8 °F - 30.2 °F 31% 30.01 in 10.0 mi East 4.6 mph - N/A   Clear
5:35 PM 60.8 °F - 30.2 °F 31% 30.01 in 10.0 mi Calm Calm - N/A   Clear
6:15 PM 57.2 °F - 30.2 °F 36% 30.00 in 10.0 mi Calm Calm - N/A   Clear
6:35 PM 57.2 °F - 28.4 °F 33% 29.99 in 10.0 mi Calm Calm - N/A   Clear
6:55 PM 57.2 °F - 30.2 °F 36% 29.99 in 10.0 mi Calm Calm - N/A   Clear
7:15 PM 53.6 °F - 35.6 °F 51% 29.99 in 10.0 mi Calm Calm - N/A   Clear
7:35 PM 53.6 °F - 32.0 °F 44% 29.99 in 10.0 mi Calm Calm - N/A   Clear
8:15 PM 51.8 °F - 30.2 °F 44% 29.99 in 10.0 mi Calm Calm - N/A   Clear
8:35 PM 53.6 °F - 33.8 °F 47% 29.99 in 10.0 mi Calm Calm - N/A   Clear
9:15 PM 51.8 °F - 30.2 °F 44% 29.99 in 10.0 mi NW 4.6 mph - N/A   Clear
9:35 PM 51.8 °F - 30.2 °F 44% 29.98 in 10.0 mi NW 3.5 mph - N/A   Clear
10:15 PM 48.2 °F - 28.4 °F 46% 29.98 in 10.0 mi WNW 4.6 mph - N/A   Clear
10:35 PM 46.4 °F 43.5 °F 28.4 °F 50% 29.98 in 10.0 mi West 5.8 mph - N/A   Clear
10:55 PM 46.4 °F 43.5 °F 28.4 °F 50% 29.98 in 10.0 mi WNW 5.8 mph - N/A   Clear
11:15 PM 46.4 °F 45.2 °F 28.4 °F 50% 29.98 in 10.0 mi NW 3.5 mph - N/A   Clear
11:35 PM 46.4 °F 45.2 °F 28.4 °F 50% 29.97 in 10.0 mi NE 3.5 mph - N/A   Clear